ATLAS CENTAUR 2 DEB

Satellite information

Favourite Embed

Satellite Type and Status

DEBRISIN ORBIT

Key statistics

Satellite ATLAS CENTAUR 2 DEB at a glance.

Uptime

22447

Days in orbit

Revolutions

≈ 13.4

Per day

Orbit

LEO

Low Earth Orbit

Inclination

30.5

Latest

Satellite identification and parameters

Extended collection of information and parameters for ATLAS CENTAUR 2 DEB.

Object identification

Identified? True

Debris? True

Object name: ATLAS CENTAUR 2 DEB

International designator: 1963-047F

Object number (NORAD): 700

Object ID (CCSDS): 700

Country: UNITED STATES OF AMERICA (US)

Current information (Y/N): Y

RCS size: MEDIUM

Orbital parameters

Period: 107.469 minutes

Inclination: 30.48 deg

SMA: 7487.708 km

Apoapsis: 1647.202 km

Periapsis: 571.943 km

RAAN: 224.2628 deg

Eccentricy: 0.0718016

Argument of periapsis: 188.7908 deg

Mean anomaly: 169.9472 deg

Mean motion: 13.39921765 rev/day

Mean motion (dot): 0.00000667 rev/day2

B* drag term: 0.00022654 1/REarth

Two-line elements (TLE)

Creation date: May 11, 2025, 10:21 p.m.

Reference frame: TEME

Reference center: EARTH

Epoch: May 11, 2025, 1:37 p.m. UTC

TLE line 0: 0 ATLAS CENTAUR 2 DEB

TLE line 1: 1 00700U 63047F 25131.56749474 .00000667 00000-0 22654-3 0 9996

TLE line 2: 2 00700 30.4800 224.2628 0718016 188.7908 169.9472 13.39921765996282

Live tracking on map

Real-time ground track for satellite ATLAS CENTAUR 2 DEB.

In-orbit conjunctions

A list of the most updated potential collisions computed for object ATLAS CENTAUR 2 DEB.

Target Orbit TCA Probability of collision Miss distance Type
CZ-6A DEB LEO 2024-11-03 03:57:03 0.000250401 852.0 (m) DEBRIS

Associated space launch

Test flight of the cryogenic Centaur stage.

ATLAS CENTAUR 2 DEB was lifted into orbit during the mission ‘Atlas Centaur | AC-2 Instrumentation Ring’, on board a Atlas Centaur space rocket.

The launch took place on Nov. 27, 1963, 7:03 p.m. from Launch Complex 36A.

For more information about the launch, click the button.

Launch to space Atlas Centaur | AC-2 Instrumentation Ring
Atlas Centaur | AC-2 Instrumentation Ring

Agency: N/A

Status: Launch Successful

Launch date: Nov. 27, 1963, 7:03 p.m. UTC

Rocket: Atlas Centaur

Launch pad: Launch Complex 36A

Location: Cape Canaveral SFS, FL, USA

...

Latest news about this satellite

There are no fresh news available about this satellite. Check back as we update our databases every day.


Newsletter sign-up

Weekly statistics, charts and insights to help you stay on top of the space industry.